Weather in Kivertsi

Ukraine / Volyn Oblast     50˚49′58″N   25˚27′41″E
temp.,
°C
wind,
m/s
gust,
m/s
humid.,
%
clouds,
%
prec.,
mm/h
press.,
hPa
HPBL,
m
1 december, tue
tue123:00−2˚sw238198 0.0 1028124
02:00−3˚s228097 0.0 102821
05:00−4˚sse338426 0.0 102756
08:00−4˚sse338713 0.0 102866
11:00−1˚sse35750 0.0 1028347
14:00se35700 0.0 1028458
17:00−3˚ese34840 0.0 102886
20:00−4˚ese36890 0.0 1029139
2 december, wed
wed223:00−4˚ese36890 0.0 1029140
02:00−5˚e35890 0.0 102998
05:00−5˚ene35930 0.0 1028118
08:00−5˚e34966 0.0 1028114
11:00−2˚e349154 0.0 1028267
14:00−1˚e348962 0.0 1026337
17:00−2˚e369272 0.0 1025230
20:00−1˚ese468785 0.0 1025482
3 december, thu
thu323:00−1˚sse4784100 0.0 1023500
02:00−1˚se3784100 0.0 1023375
05:00−1˚se4887100 0.0 1022365
08:00−3˚se5109484 0.0 1021315
11:00−1˚sse698573 0.0 1021517
14:00+1˚se6118073 0.0 1019559
17:00−1˚se6138828 0.0 1018490
20:00−2˚se6138744 0.0 1018496
4 december, fri
fri423:00−1˚se614879 0.0 1017470
02:00+1˚sse6149127 0.0 1015541
05:00+4˚sse71590100 0.0 1013666
08:00+5˚se81789100 0.0 1013759
11:00+6˚se81786100 0.0 1012903
14:00+7˚se81785100 0.0 1011905
17:00+7˚se7168699 0.0 1012697
20:00+7˚se6158898 0.0 1013668
5 december, sat
sat523:00+7˚se7168879 0.0 1013622
02:00+7˚sse7168960 0.0 1013616
05:00+8˚se7158794 0.0 1013660
08:00+8˚sse6148786 0.0 1014681
11:00+10˚sse7138289 0.0 1015782
14:00+10˚sse7127890 0.0 1015789
17:00+9˚se6138399 0.0 1015741
20:00+9˚sse8138298 0.0 1016805